Weather History for Williams, AZ

Change the Weather History Date:

Tuesday, February 25, 2014

  Actual Average (KFLG) Record (KFLG)
Temperature  
Mean Temperature 40 °F 34 °F  
Max Temperature 57 °F 46 °F 70 °F (1986)
Min Temperature 24 °F 21 °F -10 °F (1919)
Degree Days  
Heating Degree Days 24 31  
Month to date heating degree days 828  
Since 1 July heating degree days 4744  
Cooling Degree Days 0 0  
Month to date cooling degree days 0  
Year to date cooling degree days 0  
Moisture  
Dew Point 18 °F    
Average Humidity 43    
Maximum Humidity 74    
Minimum Humidity 20    
Precipitation  
Precipitation 0.00 in 0.08 in 0.84 in (1958)
Month to date precipitation 1.92  
Year to date precipitation 3.97  
Snow  
Snow 0.00 in 0.60 in 12.40 in (1998)
Month to date snowfall 18.8  
Since 1 July snowfall 71.1  
Snow Depth -    
Sea Level Pressure  
Sea Level Pressure 30.19 in    
Wind  
Wind Speed 9 mph (South)    
Max Wind Speed 14 mph    
Max Gust Speed 18 mph    
Visibility 10 miles    
Events      
T = Trace of Precipitation, MM = Missing Value Source: NWS Daily Summary

Daily Weather History Graph

Daily Weather History Graph

Search for Another Location

Airport:

Trip Planner

Search our weather history database for the weather conditions in past years. The results will help you decide how hot, cold, wet, or windy it might be!

Date:

Astronomy

Feb. 25, 2014 Rise Set
Actual Time 7:03 AM MST 6:20 PM MST
Civil Twilight 6:37 AM MST 6:46 PM MST
Nautical Twilight 6:08 AM MST 7:15 PM MST
Astronomical Twilight 5:38 AM MST 7:45 PM MST
Moon 3:55 AM MST (2/25) 2:36 PM MST (2/25)
Length of Visible Light 12h 08m
Length of Day
11h 17m
Waning Crescent, 17% of the Moon is Illuminated
Feb 25
Waning Crescent
Mar 1
New
Mar 8
First Quarter
Mar 16
Full
Mar 23
Last Quarter

Hourly Weather History & Observations

Time (MST) Temp. Windchill Dew Point Humidity Pressure Visibility Wind Dir Wind Speed Gust Speed Precip Events Conditions
12:15 AM 30.2 °F 22.6 °F 15.8 °F 55% 30.23 in 10.0 mi SE 8.1 mph - N/A   Clear
12:35 AM 28.4 °F 19.7 °F 15.8 °F 59% 30.23 in 10.0 mi SE 9.2 mph - N/A   Clear
12:55 AM 28.4 °F 20.4 °F 17.6 °F 64% 30.22 in 10.0 mi SE 8.1 mph - N/A   Clear
1:15 AM 28.4 °F 19.7 °F 15.8 °F 59% 30.22 in 10.0 mi SE 9.2 mph - N/A   Clear
1:35 AM 28.4 °F 19.1 °F 17.6 °F 64% 30.22 in 10.0 mi SE 10.4 mph - N/A   Clear
1:55 AM 30.2 °F 21.3 °F 17.6 °F 60% 30.22 in 10.0 mi SE 10.4 mph - N/A   Clear
2:15 AM 28.4 °F 20.4 °F 17.6 °F 64% 30.22 in 10.0 mi SE 8.1 mph - N/A   Clear
2:35 AM 28.4 °F 19.7 °F 17.6 °F 64% 30.21 in 10.0 mi SE 9.2 mph - N/A   Clear
2:55 AM 26.6 °F 17.5 °F 17.6 °F 69% 30.21 in 10.0 mi SE 9.2 mph - N/A   Clear
3:15 AM 26.6 °F 18.2 °F 15.8 °F 64% 30.20 in 10.0 mi SE 8.1 mph - N/A   Clear
3:35 AM 26.6 °F 17.5 °F 15.8 °F 64% 30.20 in 10.0 mi SE 9.2 mph - N/A   Clear
3:55 AM 26.6 °F 18.2 °F 17.6 °F 69% 30.19 in 10.0 mi SE 8.1 mph - N/A   Clear
4:15 AM 26.6 °F 18.2 °F 17.6 °F 69% 30.19 in 10.0 mi SE 8.1 mph - N/A   Clear
4:35 AM 26.6 °F 18.2 °F 17.6 °F 69% 30.19 in 10.0 mi SE 8.1 mph - N/A   Clear
4:55 AM 26.6 °F 18.2 °F 17.6 °F 69% 30.19 in 10.0 mi SE 8.1 mph - N/A   Clear
5:15 AM 26.6 °F 18.2 °F 17.6 °F 69% 30.18 in 10.0 mi SE 8.1 mph - N/A   Clear
5:35 AM 26.6 °F 18.2 °F 17.6 °F 69% 30.18 in 10.0 mi SE 8.1 mph - N/A   Clear
5:55 AM 26.6 °F 17.5 °F 17.6 °F 69% 30.19 in 10.0 mi SE 9.2 mph - N/A   Clear
6:15 AM 26.6 °F 17.5 °F 17.6 °F 69% 30.19 in 10.0 mi SE 9.2 mph - N/A   Clear
6:35 AM 26.6 °F 17.5 °F 17.6 °F 69% 30.19 in 10.0 mi SE 9.2 mph - N/A   Clear
6:55 AM 24.8 °F 15.3 °F 17.6 °F 74% 30.19 in 10.0 mi SE 9.2 mph - N/A   Clear
7:15 AM 24.8 °F 16.1 °F 17.6 °F 74% 30.19 in 10.0 mi SE 8.1 mph - N/A   Clear
7:35 AM 26.6 °F 17.5 °F 17.6 °F 69% 30.20 in 10.0 mi SE 9.2 mph - N/A   Clear
7:55 AM 28.4 °F 20.4 °F 19.4 °F 69% 30.21 in 10.0 mi SE 8.1 mph - N/A   Clear
8:15 AM 32.0 °F 24.8 °F 19.4 °F 60% 30.21 in 10.0 mi ESE 8.1 mph - N/A   Clear
8:35 AM 39.2 °F 34.2 °F 19.4 °F 45% 30.21 in 10.0 mi SE 6.9 mph - N/A   Clear
8:55 AM 44.6 °F 43.1 °F 21.2 °F 39% 30.21 in 10.0 mi SE 3.5 mph - N/A   Clear
9:15 AM 48.2 °F - 19.4 °F 32% 30.22 in 10.0 mi SE 3.5 mph - N/A   Clear
9:35 AM 50.0 °F - 17.6 °F 28% 30.22 in 10.0 mi SE 3.5 mph - N/A   Clear
9:55 AM 51.8 °F - 17.6 °F 26% 30.22 in 10.0 mi ESE 3.5 mph - N/A   Clear
10:15 AM 53.6 °F - 17.6 °F 24% 30.21 in 10.0 mi WNW 3.5 mph - N/A   Clear
10:35 AM 53.6 °F - 17.6 °F 24% 30.21 in 10.0 mi West 9.2 mph - N/A   Clear
10:55 AM 55.4 °F - 15.8 °F 21% 30.21 in 10.0 mi SW 10.4 mph - N/A   Clear
11:15 AM 55.4 °F - 15.8 °F 21% 30.20 in 10.0 mi West 4.6 mph 16.1 mph N/A   Clear
11:35 AM 55.4 °F - 15.8 °F 21% 30.20 in 10.0 mi West 8.1 mph 17.3 mph N/A   Clear
11:55 AM 57.2 °F - 15.8 °F 20% 30.20 in 10.0 mi SW 11.5 mph - N/A   Clear
12:15 PM 55.4 °F - 15.8 °F 21% 30.19 in 10.0 mi WSW 9.2 mph - N/A   Clear
12:35 PM 57.2 °F - 15.8 °F 20% 30.19 in 10.0 mi SSW 9.2 mph 16.1 mph N/A   Clear
12:55 PM 55.4 °F - 15.8 °F 21% 30.18 in 10.0 mi SW 11.5 mph - N/A   Clear
1:15 PM 55.4 °F - 15.8 °F 21% 30.17 in 10.0 mi South 11.5 mph 17.3 mph N/A   Clear
1:35 PM 53.6 °F - 17.6 °F 24% 30.17 in 10.0 mi SSW 11.5 mph - N/A   Clear
1:55 PM 53.6 °F - 17.6 °F 24% 30.16 in 10.0 mi SW 6.9 mph - N/A   Clear
2:15 PM 53.6 °F - 15.8 °F 22% 30.16 in 10.0 mi WSW 12.7 mph - N/A   Clear
2:35 PM 55.4 °F - 15.8 °F 21% 30.16 in 10.0 mi WSW 9.2 mph - N/A   Clear
2:55 PM 55.4 °F - 15.8 °F 21% 30.15 in 10.0 mi SW 9.2 mph - N/A   Clear
3:15 PM 55.4 °F - 15.8 °F 21% 30.15 in 10.0 mi SW 13.8 mph 17.3 mph N/A   Clear
3:35 PM 57.2 °F - 17.6 °F 21% 30.14 in 10.0 mi SSW 10.4 mph - N/A   Scattered Clouds
3:55 PM 57.2 °F - 17.6 °F 21% 30.14 in 10.0 mi WSW 13.8 mph 18.4 mph N/A   Partly Cloudy
4:15 PM 55.4 °F - 17.6 °F 23% 30.14 in 10.0 mi WSW 11.5 mph - N/A   Clear
4:35 PM 55.4 °F - 17.6 °F 23% 30.14 in 10.0 mi SSW 9.2 mph 16.1 mph N/A   Partly Cloudy
4:55 PM 55.4 °F - 17.6 °F 23% 30.14 in 10.0 mi SW 9.2 mph - N/A   Partly Cloudy
5:15 PM 55.4 °F - 17.6 °F 23% 30.14 in 10.0 mi SW 11.5 mph - N/A   Clear
5:35 PM 55.4 °F - 17.6 °F 23% 30.14 in 10.0 mi SSW 10.4 mph - N/A   Clear
5:55 PM 53.6 °F - 17.6 °F 24% 30.14 in 10.0 mi SW 9.2 mph - N/A   Clear
6:15 PM 51.8 °F - 17.6 °F 26% 30.14 in 10.0 mi SW 6.9 mph - N/A   Clear
6:35 PM 50.0 °F - 17.6 °F 28% 30.15 in 10.0 mi SW 5.8 mph - N/A   Clear
6:55 PM 46.4 °F 43.5 °F 17.6 °F 32% 30.15 in 10.0 mi SSW 5.8 mph - N/A   Clear
7:15 PM 46.4 °F 42.9 °F 15.8 °F 29% 30.16 in 10.0 mi SSW 6.9 mph - N/A   Clear
7:35 PM 48.2 °F - 17.6 °F 30% 30.16 in 10.0 mi SSW 10.4 mph - N/A   Clear
7:55 PM 48.2 °F - 19.4 °F 32% 30.17 in 10.0 mi SSW 9.2 mph - N/A   Clear
8:15 PM 46.4 °F 41.1 °F 19.4 °F 34% 30.17 in 10.0 mi SSW 11.5 mph 16.1 mph N/A   Clear
8:35 PM 46.4 °F 41.1 °F 19.4 °F 34% 30.18 in 10.0 mi SSW 11.5 mph - N/A   Clear
8:55 PM 46.4 °F 41.9 °F 21.2 °F 37% 30.18 in 10.0 mi SSW 9.2 mph - N/A   Clear
9:15 PM 44.6 °F 40.2 °F 21.2 °F 39% 30.19 in 10.0 mi SSW 8.1 mph - N/A   Clear
9:35 PM 44.6 °F 40.2 °F 21.2 °F 39% 30.19 in 10.0 mi SSW 8.1 mph - N/A   Clear
9:55 PM 42.8 °F 38.6 °F 23.0 °F 46% 30.20 in 10.0 mi South 6.9 mph - N/A   Clear
10:15 PM 42.8 °F 38.0 °F 23.0 °F 46% 30.20 in 10.0 mi SSW 8.1 mph - N/A   Clear
10:35 PM 42.8 °F 39.3 °F 24.8 °F 49% 30.20 in 10.0 mi South 5.8 mph - N/A   Clear
10:55 PM 41.0 °F 38.0 °F 24.8 °F 53% 30.20 in 10.0 mi South 4.6 mph - N/A   Clear
11:15 PM 35.6 °F 31.7 °F 23.0 °F 60% 30.20 in 10.0 mi SE 4.6 mph - N/A   Clear
11:35 PM 33.8 °F 27.7 °F 23.0 °F 65% 30.19 in 10.0 mi SE 6.9 mph - N/A   Clear
11:55 PM 32.0 °F 26.4 °F 21.2 °F 64% 30.19 in 10.0 mi SSE 5.8 mph - N/A   Clear